Stations météo

réclame
Mon MeteoGroup
Kirkwall, Grande-Bretagne (3017): Température de l'air & dewpoint: 19.04.2018 09:00:00 - 25.04.2018 09:00:00 (BST)Kirkwall, Grande-Bretagne (3017): Température de l'air -20cm & Température de l'air -100cm: 19.04.2018 09:00:00 - 25.04.2018 09:00:00 (BST)Kirkwall, Grande-Bretagne (3017): Vitesse du vent & gusts: 19.04.2018 09:00:00 - 25.04.2018 09:00:00 (BST)Kirkwall, Grande-Bretagne (3017): Direction du vent: 19.04.2018 09:00:00 - 25.04.2018 09:00:00 (BST)Kirkwall, Grande-Bretagne (3017): reduced air pressure: 19.04.2018 09:00:00 - 25.04.2018 09:00:00 (BST)Kirkwall, Grande-Bretagne (3017): visibility: 19.04.2018 09:00:00 - 25.04.2018 09:00:00 (BST)Kirkwall, Grande-Bretagne (3017): Ensoleillement: 19.04.2018 09:00:00 - 25.04.2018 09:00:00 (BST)Kirkwall, Grande-Bretagne (3017): Quantités de précipitations: 19.04.2018 09:00:00 - 25.04.2018 09:00:00 (BST)
Date & Time tt [°C] td [°C] tt -20cm [°C] tt -100cm [°C] ff [km/h] ff [knt] fx [km/h] fx [knt] dd ppp [hPa] vv [km] sd [min] rr [mm]
25.04.2018 09:00:00 7,9 4,7 - - 18 10 - - SSW 999,5 30 54 0,0
25.04.2018 08:00:00 7,5 5,1 - - 18 10 - - SSW 999,4 35 42 0,0
25.04.2018 07:00:00 6,3 5,1 - - 16 9 - - SSW 999,6 27 6 0,0
25.04.2018 06:00:00 5,2 4,2 - - 18 10 - - SW 999,5 23 0 0,0
25.04.2018 05:00:00 5,2 4,2 - - 18 10 - - SW 999,7 22 0 0,0
25.04.2018 04:00:00 6,1 5,2 - - 18 10 - - SW 1000,0 24 0 0,0
25.04.2018 03:00:00 5,8 5,1 - - 18 10 - - SW 1000,1 28 0 0,0
25.04.2018 02:00:00 5,6 4,7 - - 21 11 - - SW 1000,4 23 0 0,0
25.04.2018 01:00:00 5,7 5,0 - - 18 10 - - SSW 1000,7 21 - 0,0
25.04.2018 00:00:00 6,0 5,4 - - 16 9 - - WSW 1000,8 20 0 0,0
24.04.2018 23:00:00 5,4 4,3 - - 18 10 - - SW 1000,9 26 0 0,0
24.04.2018 22:00:00 6,0 4,5 - - 16 9 - - SW 1001,1 27 0 0,0
24.04.2018 21:00:00 7,2 4,9 - - 18 10 - - WSW 1001,1 19 18 0,0
24.04.2018 20:00:00 8,4 5,1 - - 22 12 - - W 1001,0 18 60 0,0
24.04.2018 19:00:00 9,5 5,0 - - 26 14 - - W 1001,0 16 30 0,0
24.04.2018 18:00:00 9,3 4,9 - - 26 14 - - W 1001,2 27 48 0,0
24.04.2018 17:00:00 10,2 4,6 - - 35 19 46 25 W 1001,4 22 60 0,0
24.04.2018 16:00:00 10,6 4,7 - - 35 19 48 26 W 1001,5 30 54 0,0
24.04.2018 15:00:00 11,0 6,1 - - 31 17 57 31 W 1001,4 20 54 0,0
24.04.2018 14:00:00 9,6 5,7 - - 39 21 59 32 W 1001,4 22 12 0,0
24.04.2018 13:00:00 9,2 6,7 - - 42 23 63 34 W 1001,0 20 6 0,2
24.04.2018 12:00:00 8,1 6,1 - - 39 21 67 36 W 1000,8 7 0 0,0
24.04.2018 11:00:00 8,3 6,1 - - 44 24 63 34 WSW 1000,2 6 36 0,0
24.04.2018 10:00:00 9,4 6,0 8,7 7,2 44 24 61 33 WSW 999,6 19 36 0,0
24.04.2018 09:00:00 8,8 6,0 - - 44 24 61 33 WSW 999,0 18 42 0,0
24.04.2018 08:00:00 8,0 5,5 - - 42 23 61 33 WSW 998,4 16 36 0,0
24.04.2018 07:00:00 7,3 5,6 - - 39 21 59 32 WSW 998,0 14 0 0,2
24.04.2018 06:00:00 6,7 5,1 - - 39 21 54 29 WSW 998,0 12 0 0,0
24.04.2018 05:00:00 7,3 5,9 - - 31 17 - - WSW 997,9 12 0 0,6
24.04.2018 04:00:00 6,7 6,4 - - 15 8 - - SW 998,3 1,5 0 0,8
24.04.2018 03:00:00 6,5 6,2 - - 16 9 - - WSW 998,3 9 0 0,0
24.04.2018 02:00:00 6,4 6,0 - - 13 7 - - WSW 998,6 12 0 0,0
24.04.2018 01:00:00 6,5 6,0 - - 15 8 - - WSW 998,9 11 - 0,4
24.04.2018 00:00:00 6,6 6,2 - - 9 5 - - SW 998,9 10 0 0,2
23.04.2018 23:00:00 6,6 6,1 - - 9 5 - - W 999,1 15 0 0,4
23.04.2018 22:00:00 6,7 5,9 - - 16 9 - - W 999,6 12 0 0,8
23.04.2018 21:00:00 7,4 5,8 - - 16 9 - - WSW 999,7 13 0 0,2
23.04.2018 20:00:00 8,2 5,6 - - 28 15 - - WSW 999,9 27 0 0,0
23.04.2018 19:00:00 8,9 5,7 - - 24 13 - - WSW 1000,2 35 0 0,0
23.04.2018 18:00:00 9,0 5,1 - - 29 16 50 27 W 1000,3 30 6 0,0
23.04.2018 17:00:00 10,9 5,7 - - 34 18 52 28 WSW 1000,6 27 36 0,0
23.04.2018 16:00:00 11,4 5,5 - - 44 24 61 33 WSW 1000,7 35 54 0,0
23.04.2018 15:00:00 10,3 5,3 - - 41 22 55 30 WSW 1001,1 35 12 0,0
23.04.2018 14:00:00 9,8 6,1 - - 37 20 59 32 WSW 1001,2 26 6 0,0
23.04.2018 13:00:00 10,6 6,5 - - 41 22 61 33 WSW 1000,8 30 42 0,0
23.04.2018 12:00:00 10,6 6,5 - - 35 19 63 34 WSW 1000,4 29 18 0,0
23.04.2018 11:00:00 9,0 6,0 - - 42 23 65 35 W 1000,2 19 0 0,0
23.04.2018 10:00:00 9,0 6,4 8,7 7,2 41 22 57 31 W 999,7 22 12 0,0
23.04.2018 09:00:00 8,7 6,7 - - 41 22 55 30 W 999,2 16 18 0,0
23.04.2018 08:00:00 8,0 6,5 - - 31 17 48 26 W 998,8 13 36 0,0
23.04.2018 07:00:00 7,6 6,7 - - 26 14 - - W 998,3 15 0 0,0
23.04.2018 06:00:00 7,7 7,0 - - 31 17 - - W 997,4 15 0 0,2
23.04.2018 05:00:00 7,4 7,0 - - 26 14 - - SW 996,9 5 0 0,4
23.04.2018 04:00:00 7,4 6,6 - - 21 11 - - SW 996,9 30 0 0,0
23.04.2018 03:00:00 7,4 6,7 - - 21 11 - - SSW 997,0 40 0 0,2
23.04.2018 02:00:00 7,3 6,8 - - 18 10 - - SSW 997,2 22 0 0,0
23.04.2018 01:00:00 7,4 6,4 - - 15 8 - - S 997,5 26 - 0,0
23.04.2018 00:00:00 7,1 6,4 - - 21 11 - - SSE 997,8 35 0 0,0
22.04.2018 23:00:00 6,5 5,8 - - 15 8 - - SSE 998,2 27 0 0,0
22.04.2018 22:00:00 6,7 6,0 - - 15 8 - - S 998,6 19 0 0,0
22.04.2018 21:00:00 6,5 4,8 - - 11 6 - - WSW 998,6 50 0 0,0
22.04.2018 20:00:00 7,2 6,3 - - 15 8 - - W 998,6 45 0 0,2
22.04.2018 19:00:00 7,8 6,8 - - 26 14 - - W 998,5 21 0 1,2
22.04.2018 18:00:00 8,7 7,8 - - 13 7 - - SW 998,4 3,5 0 2,0
22.04.2018 17:00:00 9,5 7,9 - - 11 6 - - S 998,2 12 0 0,4
22.04.2018 16:00:00 10,1 8,0 - - 9 5 - - W 998,4 13 0 0,2
22.04.2018 15:00:00 11,1 6,6 - - 13 7 - - W 998,7 27 0 0,0
22.04.2018 14:00:00 12,3 5,6 - - 11 6 - - W 998,8 40 0 0,0
22.04.2018 13:00:00 14,0 6,5 - - 11 6 - - W 998,8 25 48 0,0
22.04.2018 12:00:00 14,1 7,6 - - 16 9 - - SW 999,0 13 60 0,0
22.04.2018 11:00:00 11,2 8,7 - - 29 16 - - SSW 1000,0 6 42 0,0
22.04.2018 10:00:00 8,9 8,0 8,7 7,0 28 15 - - S 1000,3 6 0 0,0
22.04.2018 09:00:00 8,2 7,7 - - 28 15 - - S 1000,9 5 0 0,0
22.04.2018 08:00:00 7,4 7,2 - - 24 13 - - SSE 1001,4 2,5 0 0,0
22.04.2018 07:00:00 7,1 6,8 - - 22 12 - - SSE 1002,1 4,1 0 0,0
22.04.2018 06:00:00 7,0 6,7 - - 21 11 - - SSE 1003,1 5 0 0,0
22.04.2018 05:00:00 6,8 6,8 - - 29 16 - - SSE 1003,9 2,2 0 0,0
22.04.2018 04:00:00 6,9 6,6 - - 26 14 - - SE 1005,1 1,4 0 0,0
22.04.2018 03:00:00 7,1 6,7 - - 24 13 - - SE 1006,3 6 0 0,0
22.04.2018 02:00:00 7,0 6,2 - - 21 11 - - SE 1007,9 8 0 0,0
22.04.2018 01:00:00 7,6 5,9 - - 11 6 - - SSE 1009,1 14 - 0,0
22.04.2018 00:00:00 8,2 6,3 - - 21 11 - - S 1009,7 14 0 0,0
21.04.2018 23:00:00 7,7 6,1 - - 21 11 - - SSE 1010,3 13 0 0,0
21.04.2018 22:00:00 7,5 6,3 - - 26 14 - - SE 1010,9 10 0 0,0
21.04.2018 21:00:00 7,1 6,1 - - 21 11 - - SE 1011,8 11 0 0,0
21.04.2018 20:00:00 7,9 6,4 - - 24 13 - - SE 1012,8 14 0 0,0
21.04.2018 19:00:00 8,0 6,2 - - 22 12 - - SE 1013,7 18 0 0,0
21.04.2018 18:00:00 8,2 6,0 - - 28 15 - - SE 1014,5 24 0 0,0
21.04.2018 17:00:00 8,9 5,4 - - 29 16 - - SE 1015,3 27 6 0,0
21.04.2018 16:00:00 9,6 5,1 - - 22 12 - - SE 1016,0 28 0 0,0
21.04.2018 15:00:00 9,8 5,0 - - 28 15 - - SSE 1017,0 45 42 0,0
21.04.2018 14:00:00 11,1 5,2 - - 26 14 - - SSE 1017,8 35 60 0,0
21.04.2018 13:00:00 11,1 5,6 - - 24 13 - - S 1018,3 40 60 0,0
21.04.2018 12:00:00 11,5 5,3 - - 18 10 - - SSE 1018,9 22 60 0,0
21.04.2018 11:00:00 10,5 5,8 - - 18 10 - - S 1019,5 28 60 0,0
21.04.2018 10:00:00 10,3 5,9 8,7 6,7 15 8 - - S 1019,7 22 60 0,0
21.04.2018 09:00:00 8,9 6,1 - - 16 9 - - S 1020,0 21 60 0,0
21.04.2018 08:00:00 7,8 6,1 - - 15 8 - - SSW 1019,9 24 42 0,0
21.04.2018 07:00:00 6,8 6,1 - - 13 7 - - SW 1020,0 18 18 0,0
21.04.2018 06:00:00 6,1 5,5 - - 22 12 - - WSW 1019,9 13 0 0,0
21.04.2018 05:00:00 5,9 4,8 - - 22 12 - - WSW 1019,8 14 0 0,0
21.04.2018 04:00:00 7,3 6,2 - - 16 9 - - WSW 1020,2 14 0 0,0
21.04.2018 03:00:00 6,9 6,2 - - 15 8 - - SW 1020,4 13 0 0,0
21.04.2018 02:00:00 6,7 5,7 - - 21 11 - - WSW 1020,4 13 0 0,0
21.04.2018 01:00:00 6,6 5,6 - - 18 10 - - WSW 1020,4 11 - 0,0
21.04.2018 00:00:00 6,8 5,8 - - 22 12 - - WSW 1020,2 11 0 0,0
20.04.2018 23:00:00 7,4 6,0 - - 26 14 - - W 1019,8 12 0 0,0
20.04.2018 22:00:00 7,1 5,7 - - 22 12 - - WSW 1019,9 13 0 0,0
20.04.2018 21:00:00 7,6 5,9 - - 28 15 46 25 W 1019,4 13 6 0,0
20.04.2018 20:00:00 8,8 5,8 - - 28 15 46 25 W 1018,7 16 60 0,0
20.04.2018 19:00:00 10,0 6,9 - - 29 16 50 27 WSW 1018,7 18 6 0,0
20.04.2018 18:00:00 10,9 6,5 - - 34 18 50 27 W 1018,5 25 36 0,0
20.04.2018 17:00:00 12,3 7,8 - - 37 20 52 28 W 1018,1 27 30 0,2
20.04.2018 16:00:00 12,4 6,9 - - 34 18 52 28 W 1017,9 10 42 0,0
20.04.2018 15:00:00 13,9 6,3 - - 34 18 52 28 W 1017,9 30 42 0,0
20.04.2018 14:00:00 13,5 6,3 - - 34 18 50 27 WSW 1018,1 29 60 0,0
20.04.2018 13:00:00 13,3 7,4 - - 29 16 - - WSW 1018,2 40 18 0,0
20.04.2018 12:00:00 12,8 5,6 - - 26 14 - - WSW 1018,0 45 0 0,0
20.04.2018 11:00:00 12,0 5,4 - - 16 9 - - WSW 1018,3 30 24 0,0
20.04.2018 10:00:00 12,4 5,9 8,4 6,7 21 11 - - SSW 1018,0 26 60 0,0
20.04.2018 09:00:00 11,8 6,3 - - 21 11 - - SW 1018,3 24 60 0,0
20.04.2018 08:00:00 10,3 6,3 - - 13 7 - - SW 1018,4 30 48 0,0
20.04.2018 07:00:00 6,9 4,1 - - 5 3 - - WSW 1018,8 40 0 0,0
20.04.2018 06:00:00 7,3 5,1 - - 18 10 - - SW 1018,7 50 0 0,0
20.04.2018 05:00:00 8,4 4,8 - - 15 8 - - SSW 1019,0 45 0 0,0
20.04.2018 04:00:00 8,5 5,3 - - 21 11 - - SSW 1019,4 50 0 0,0
20.04.2018 03:00:00 8,5 6,3 - - 16 9 - - SSW 1019,8 40 0 0,0
20.04.2018 02:00:00 8,0 6,9 - - 18 10 - - S 1020,2 12 0 0,0
20.04.2018 01:00:00 7,5 6,1 - - 9 5 - - SW 1020,6 16 - 0,0
20.04.2018 00:00:00 8,2 7,2 - - 21 11 - - S 1020,7 14 0 0,0
19.04.2018 23:00:00 8,9 7,9 - - 15 8 - - SSE 1020,9 13 0 0,0
19.04.2018 22:00:00 8,6 7,6 - - 18 10 - - SSE 1020,8 13 0 0,0
19.04.2018 21:00:00 9,5 8,2 - - 15 8 - - SE 1020,8 14 0 0,0
19.04.2018 20:00:00 11,2 9,2 - - 8 4 - - SSE 1020,5 16 6 0,0
19.04.2018 19:00:00 12,4 9,3 - - 4 2 - - E 1020,4 22 12 0,0
19.04.2018 18:00:00 12,9 9,4 - - 8 4 - - E 1020,2 19 6 0,0
19.04.2018 17:00:00 13,7 9,8 - - 9 5 - - N 1020,2 40 12 0,0
19.04.2018 16:00:00 13,6 9,5 - - 9 5 - - N 1020,2 25 6 0,0
19.04.2018 15:00:00 14,1 9,9 - - 15 8 - - N 1019,9 17 54 0,0
19.04.2018 14:00:00 14,0 9,3 - - 11 6 - - NNE 1019,6 16 18 0,0
19.04.2018 13:00:00 14,7 9,5 - - 11 6 - - NE 1019,3 10 0 0,0
19.04.2018 12:00:00 14,0 9,5 - - 5 3 - - NNE 1019,2 25 0 0,0
19.04.2018 11:00:00 13,2 9,1 - - 5 3 - - NNW 1019,1 17 0 0,0
19.04.2018 10:00:00 13,8 8,8 7,9 6,4 9 5 - - SW 1018,7 22 24 0,0
19.04.2018 09:00:00 13,2 10,2 - - 15 8 - - S 1017,9 16 18 -

tt = Température de l'air
td = dewpoint
tt -20cm = Température de l'air -20cm
tt -100cm = Température de l'air -100cm
ff = Vitesse du vent
fx = gusts
dd = Direction du vent
ppp = reduced air pressure
vv = visibility
sd = Ensoleillement
rr = Quantités de précipitations

stations d'obs. à proximité